Terminal Aerodrome Forecast
Issued by NWS

Home | Current Version | Previous Version | Text Only | Print | Product List | Glossary On
Versions: 1 2 3 4 5 6 7 8 9 10 11 12 13 14 15 16 17 18 19 20 21 22 23 24 25 26 27 28 29 30 31 32 33 34 35 36 37 38 39 40 41 42 43 44 45 46 47 48 49 50
000
FTUS45 KVEF 311725
TAFLAS
TAF
KLAS 311725Z 3118/0118 07007KT P6SM FEW110 SCT150 SCT200
     FM312100 14008KT P6SM SCT100 SCT150 SCT200
     FM312200 17008KT P6SM VCTS SCT090CB BKN150
      TEMPO 3122/0102 VRB15G30KT 6SM -TSRA FEW060 SCT080CB BKN110
     FM010300 18010KT P6SM SCT100 BKN150 BKN200
     FM011300 20008KT P6SM VCTS SCT090CB BKN150=

USA.gov is the U.S. government's official web portal to all federal, state and local government web resources and services.